NORTHERN QUEENS  -  Freeze Warning Freeze Warning        SOUTHERN QUEENS  -  Freeze Warning Freeze Warning      

Active alerts

Northern Queens
  Details for Northern Queens Freeze Warning
Southern Queens
  Details for Southern Queens Freeze Warning


WXM80 ListenWXM80 Stop

You find our weather info also at:

UK Metoffice

WeatherCloud

Weather Underground

Northeastern Weather Network

AWEKAS

Citizen Weather Observer Program (CWOP)

HAMweather, WeatherForYou, PWS Weather


Weather Underground History page Text

Daily Summary for August 15, 2017 Units:  English    Metric   Both
« Previous Day
Next Day »
Daily Weekly Monthly Yearly Custom
  High: Low: Average:
Temperature: 74.5 °F 68.0 °F 71.7 °F
Dew Point: 71.7 °F 66.2 °F 69.4 °F
Humidity: 97 % 88 % 93 %
Wind Speed: 2.0 mph 0.0 mph 0.1 mph
Wind Gust: 8.0 mph - -
Wind:- - SSE
Pressure: 29.91 in 29.83 in -
Precipitation: 0.23 in    
Historical Graphs
 
 
Tabular Data for August 15, 2017
Time Temperature Dew Point Pressure Wind Wind Speed Wind Gust Humidity Rainfall Rate (Hourly)
00:04 71.0 °F 67.9 °F 29.90 in Calm     90 % 0.00 in
00:09 71.0 °F 67.9 °F 29.90 in Calm     90 % 0.00 in
00:14 71.0 °F 68.2 °F 29.90 in Calm     91 % 0.00 in
00:19 70.9 °F 68.1 °F 29.90 in Calm     91 % 0.00 in
00:24 70.9 °F 68.1 °F 29.90 in Calm     91 % 0.00 in
00:29 70.9 °F 68.1 °F 29.90 in Calm     91 % 0.00 in
00:34 70.9 °F 68.1 °F 29.90 in Calm     91 % 0.00 in
00:39 70.9 °F 68.5 °F 29.90 in Calm     92 % 0.00 in
00:44 71.0 °F 68.6 °F 29.90 in Calm     92 % 0.00 in
00:49 71.0 °F 68.6 °F 29.90 in Calm     92 % 0.00 in
00:55 71.1 °F 69.0 °F 29.90 in Calm     93 % 0.00 in
01:00 71.1 °F 69.0 °F 29.90 in Calm   1.2 mph 93 % 0.00 in
01:05 71.1 °F 69.0 °F 29.90 in Calm   1.2 mph 93 % 0.00 in
01:10 71.2 °F 69.1 °F 29.90 in Calm     93 % 0.00 in
01:15 71.2 °F 69.1 °F 29.89 in Calm     93 % 0.00 in
01:20 71.3 °F 68.9 °F 29.89 in Calm     92 % 0.00 in
01:25 71.3 °F 69.2 °F 29.89 in Calm   1.2 mph 93 % 0.00 in
01:30 71.4 °F 69.0 °F 29.89 in Calm     92 % 0.00 in
01:35 71.4 °F 69.0 °F 29.89 in Calm     92 % 0.00 in
01:40 71.5 °F 69.1 °F 29.89 in Calm   1.2 mph 92 % 0.00 in
01:45 71.6 °F 69.2 °F 29.89 in Calm     92 % 0.00 in
01:50 71.6 °F 69.2 °F 29.89 in Calm     92 % 0.00 in
01:55 71.7 °F 69.3 °F 29.89 in Calm     92 % 0.00 in
02:00 71.7 °F 69.3 °F 29.89 in Calm     92 % 0.00 in
02:05 71.7 °F 69.3 °F 29.89 in Calm     92 % 0.00 in
02:10 71.7 °F 69.3 °F 29.89 in Calm     92 % 0.00 in
02:15 71.8 °F 69.3 °F 29.89 in Calm     92 % 0.00 in
02:20 71.8 °F 69.3 °F 29.89 in Calm     92 % 0.00 in
02:25 71.8 °F 69.3 °F 29.89 in Calm     92 % 0.00 in
02:30 71.8 °F 69.3 °F 29.89 in Calm     92 % 0.00 in
02:35 71.8 °F 69.3 °F 29.89 in Calm     92 % 0.00 in
02:40 71.8 °F 69.3 °F 29.90 in Calm     92 % 0.00 in
02:45 71.8 °F 69.3 °F 29.90 in SE 0.1 mph 1.0 mph 92 % 0.00 in
02:50 71.8 °F 69.3 °F 29.90 in WSW 0.2 mph 3.5 mph 92 % 0.00 in
02:55 71.8 °F 69.3 °F 29.90 in Calm   1.0 mph 92 % 0.00 in
03:00 71.7 °F 69.3 °F 29.90 in WSW 0.3 mph 2.0 mph 92 % 0.00 in
03:05 71.7 °F 68.9 °F 29.90 in WSW 0.2 mph 1.2 mph 91 % 0.01 in
03:10 71.6 °F 68.8 °F 29.90 in Calm   1.2 mph 91 % 0.01 in
03:15 71.5 °F 68.7 °F 29.90 in Calm     91 % 0.02 in
03:20 71.4 °F 68.6 °F 29.90 in Calm     91 % 0.02 in
03:25 71.3 °F 68.5 °F 29.90 in Calm     91 % 0.03 in
03:30 71.3 °F 68.9 °F 29.90 in WSW 0.1 mph 1.2 mph 92 % 0.04 in
03:35 71.2 °F 68.4 °F 29.90 in Calm     91 % 0.06 in
03:40 71.0 °F 68.2 °F 29.90 in Calm   1.2 mph 91 % 0.08 in
03:46 70.9 °F 68.5 °F 29.90 in Calm   2.0 mph 92 % 0.00 in
03:51 70.8 °F 68.4 °F 29.90 in Calm   1.0 mph 92 % 0.00 in
03:56 70.7 °F 68.3 °F 29.90 in Calm   1.0 mph 92 % 0.00 in
04:01 70.6 °F 68.2 °F 29.91 in Calm     92 % 0.12 in
04:06 70.5 °F 68.1 °F 29.90 in Calm     92 % 0.12 in
04:11 70.4 °F 68.3 °F 29.90 in Calm   1.2 mph 93 % 0.12 in
04:16 70.2 °F 68.1 °F 29.90 in Calm     93 % 0.11 in
04:21 70.1 °F 68.0 °F 29.89 in Calm     93 % 0.12 in
04:26 70.1 °F 68.0 °F 29.90 in Calm   1.2 mph 93 % 0.11 in
04:31 69.9 °F 67.8 °F 29.89 in SW 0.5 mph 2.3 mph 93 % 0.09 in
04:36 69.8 °F 67.7 °F 29.89 in Calm   2.0 mph 93 % 0.07 in
04:41 69.7 °F 67.9 °F 29.89 in SW 0.2 mph 1.2 mph 94 % 0.06 in
04:46 69.5 °F 67.4 °F 29.89 in Calm     93 % 0.05 in
04:51 69.4 °F 67.3 °F 29.90 in Calm     93 % 0.05 in
04:56 69.3 °F 67.2 °F 29.90 in Calm     93 % 0.04 in
05:01 69.2 °F 67.1 °F 29.90 in Calm     93 % 0.05 in
05:06 69.0 °F 66.9 °F 29.90 in Calm     93 % 0.04 in
05:11 69.0 °F 66.9 °F 29.90 in SW 0.1 mph 1.2 mph 93 % 0.05 in
05:16 68.8 °F 66.7 °F 29.89 in Calm     93 % 0.05 in
05:21 68.7 °F 66.9 °F 29.90 in Calm     94 % 0.05 in
05:26 68.6 °F 66.8 °F 29.89 in Calm     94 % 0.05 in
05:31 68.6 °F 66.5 °F 29.89 in Calm     93 % 0.05 in
05:36 68.5 °F 66.7 °F 29.89 in Calm     94 % 0.05 in
05:41 68.4 °F 66.6 °F 29.89 in Calm   1.2 mph 94 % 0.05 in
05:46 68.4 °F 66.6 °F 29.89 in Calm     94 % 0.04 in
05:51 68.3 °F 66.5 °F 29.89 in Calm     94 % 0.04 in
05:56 68.3 °F 66.5 °F 29.89 in Calm     94 % 0.04 in
06:01 68.2 °F 66.4 °F 29.89 in Calm     94 % 0.03 in
06:06 68.1 °F 66.3 °F 29.89 in Calm     94 % 0.03 in
06:12 68.1 °F 66.3 °F 29.89 in Calm     94 % 0.02 in
06:17 68.1 °F 66.3 °F 29.89 in Calm     94 % 0.02 in
06:22 68.1 °F 66.3 °F 29.88 in Calm     94 % 0.01 in
06:27 68.0 °F 66.2 °F 29.88 in Calm     94 % 0.01 in
06:32 68.0 °F 66.2 °F 29.88 in Calm     94 % 0.01 in
06:37 68.0 °F 66.2 °F 29.88 in Calm     94 % 0.01 in
06:42 68.0 °F 66.2 °F 29.88 in Calm     94 % 0.01 in
06:47 68.0 °F 66.2 °F 29.88 in Calm     94 % 0.01 in
06:52 68.0 °F 66.2 °F 29.88 in Calm     94 % 0.00 in
06:57 68.0 °F 66.5 °F 29.88 in Calm     95 % 0.00 in
07:02 68.1 °F 66.6 °F 29.88 in Calm     95 % 0.00 in
07:07 68.1 °F 66.6 °F 29.88 in Calm     95 % 0.00 in
07:12 68.1 °F 66.6 °F 29.88 in Calm     95 % 0.00 in
07:17 68.2 °F 66.7 °F 29.88 in Calm     95 % 0.00 in
07:22 68.2 °F 66.7 °F 29.88 in Calm     95 % 0.00 in
07:27 68.3 °F 66.8 °F 29.88 in Calm     95 % 0.00 in
07:32 68.4 °F 66.9 °F 29.89 in Calm     95 % 0.00 in
07:37 68.5 °F 67.0 °F 29.88 in Calm     95 % 0.00 in
07:42 68.6 °F 67.1 °F 29.89 in Calm     95 % 0.00 in
07:47 68.7 °F 67.2 °F 29.89 in Calm     95 % 0.00 in
07:52 68.9 °F 67.7 °F 29.88 in Calm     96 % 0.00 in
07:57 69.0 °F 67.8 °F 29.88 in Calm     96 % 0.00 in
08:02 69.1 °F 67.9 °F 29.89 in Calm     96 % 0.00 in
08:07 69.3 °F 68.1 °F 29.89 in Calm     96 % 0.00 in
08:12 69.5 °F 68.3 °F 29.88 in Calm     96 % 0.00 in
08:17 69.7 °F 68.5 °F 29.88 in Calm     96 % 0.00 in
08:22 69.8 °F 68.6 °F 29.89 in Calm     96 % 0.00 in
08:27 69.9 °F 69.0 °F 29.88 in Calm   1.2 mph 97 % 0.00 in
08:32 70.1 °F 68.9 °F 29.88 in Calm     96 % 0.00 in
08:37 70.2 °F 69.0 °F 29.88 in Calm     96 % 0.00 in
08:42 70.3 °F 69.4 °F 29.89 in Calm     97 % 0.00 in
08:48 70.4 °F 69.2 °F 29.89 in Calm     96 % 0.00 in
08:53 70.5 °F 69.3 °F 29.89 in Calm     96 % 0.00 in
08:58 70.5 °F 69.3 °F 29.89 in Calm     96 % 0.00 in
09:03 70.6 °F 69.4 °F 29.89 in Calm     96 % 0.00 in
09:08 70.7 °F 69.5 °F 29.89 in SW 0.1 mph 1.2 mph 96 % 0.00 in
09:13 70.7 °F 69.2 °F 29.89 in Calm     95 % 0.00 in
09:18 70.9 °F 69.7 °F 29.89 in SW 0.1 mph 2.3 mph 96 % 0.00 in
09:23 71.0 °F 69.5 °F 29.89 in Calm     95 % 0.00 in
09:28 70.8 °F 68.7 °F 29.89 in Calm     93 % 0.00 in
09:33 71.0 °F 68.9 °F 29.89 in Calm     93 % 0.00 in
09:38 71.2 °F 69.1 °F 29.89 in Calm     93 % 0.00 in
09:43 71.3 °F 68.9 °F 29.89 in Calm     92 % 0.00 in
09:48 71.4 °F 69.0 °F 29.88 in Calm     92 % 0.00 in
09:53 71.5 °F 69.1 °F 29.89 in Calm     92 % 0.00 in
09:58 71.6 °F 69.2 °F 29.89 in Calm     92 % 0.00 in
10:03 71.7 °F 69.3 °F 29.89 in Calm     92 % 0.00 in
10:08 71.9 °F 69.4 °F 29.89 in Calm     92 % 0.00 in
10:13 72.0 °F 69.5 °F 29.89 in Calm     92 % 0.00 in
10:18 72.1 °F 70.0 °F 29.89 in Calm     93 % 0.00 in
10:23 72.2 °F 70.1 °F 29.88 in Calm     93 % 0.00 in
10:28 72.4 °F 69.6 °F 29.88 in Calm     91 % 0.00 in
10:33 72.4 °F 69.6 °F 29.88 in Calm     91 % 0.00 in
10:38 72.6 °F 69.8 °F 29.89 in East 0.2 mph 2.3 mph 91 % 0.00 in
10:43 72.7 °F 69.9 °F 29.88 in Calm     91 % 0.00 in
10:45 72.8 °F 70.0 °F 29.88 in Calm     91 % 0.00 in
10:50 72.9 °F 69.8 °F 29.88 in Calm     90 % 0.00 in
10:55 72.9 °F 69.5 °F 29.88 in Calm     89 % 0.00 in
11:00 72.9 °F 69.5 °F 29.88 in Calm     89 % 0.00 in
11:05 73.0 °F 69.6 °F 29.88 in Calm     89 % 0.00 in
11:10 73.0 °F 69.6 °F 29.88 in Calm     89 % 0.00 in
11:15 73.1 °F 70.0 °F 29.88 in Calm     90 % 0.00 in
11:20 73.1 °F 70.0 °F 29.88 in Calm     90 % 0.00 in
11:25 73.2 °F 70.1 °F 29.87 in Calm     90 % 0.00 in
11:30 73.3 °F 70.5 °F 29.87 in Calm     91 % 0.00 in
11:35 73.5 °F 70.7 °F 29.87 in Calm     91 % 0.00 in
11:40 73.5 °F 70.7 °F 29.87 in Calm     91 % 0.00 in
11:45 73.6 °F 70.8 °F 29.87 in Calm     91 % 0.00 in
11:50 73.7 °F 70.9 °F 29.87 in Calm     91 % 0.00 in
11:55 73.7 °F 70.9 °F 29.87 in East 0.2 mph 1.2 mph 91 % 0.00 in
12:00 73.9 °F 71.4 °F 29.87 in Calm   1.2 mph 92 % 0.00 in
12:06 74.0 °F 71.5 °F 29.88 in Calm   1.0 mph 92 % 0.00 in
12:11 74.1 °F 71.6 °F 29.87 in Calm   1.0 mph 92 % 0.00 in
12:16 74.1 °F 71.3 °F 29.87 in Calm   3.0 mph 91 % 0.00 in
12:21 74.2 °F 71.7 °F 29.87 in Calm     92 % 0.00 in
12:26 74.3 °F 71.5 °F 29.87 in Calm     91 % 0.00 in
12:31 74.4 °F 71.6 °F 29.87 in Calm   3.0 mph 91 % 0.00 in
12:36 74.4 °F 71.3 °F 29.86 in Calm   3.0 mph 90 % 0.00 in
12:41 74.3 °F 70.8 °F 29.86 in Calm   1.0 mph 89 % 0.00 in
12:45 74.4 °F 70.9 °F 29.87 in Calm     89 % 0.00 in
12:50 74.4 °F 71.3 °F 29.87 in SE 0.5 mph 2.3 mph 90 % 0.00 in
12:55 74.4 °F 71.3 °F 29.86 in Calm   1.2 mph 90 % 0.00 in
13:00 74.4 °F 71.3 °F 29.87 in SE 1.7 mph 3.5 mph 90 % 0.00 in
13:06 74.4 °F 70.6 °F 29.87 in Calm   6.0 mph 88 % 0.00 in
13:11 74.4 °F 70.9 °F 29.87 in Calm   2.0 mph 89 % 0.00 in
13:16 74.4 °F 70.6 °F 29.87 in SE 2.0 mph 8.0 mph 88 % 0.00 in
13:21 74.5 °F 70.7 °F 29.86 in Calm   3.0 mph 88 % 0.00 in
13:26 74.5 °F 71.0 °F 29.86 in Calm   2.0 mph 89 % 0.00 in
13:31 74.5 °F 71.0 °F 29.86 in Calm   5.0 mph 89 % 0.00 in
13:36 74.5 °F 71.0 °F 29.87 in Calm   5.0 mph 89 % 0.00 in
13:41 74.4 °F 70.6 °F 29.87 in SE 1.0 mph 3.0 mph 88 % 0.00 in
13:46 74.3 °F 70.8 °F 29.86 in SE 1.0 mph 3.0 mph 89 % 0.00 in
13:51 74.2 °F 70.7 °F 29.86 in Calm   2.0 mph 89 % 0.00 in
13:56 74.2 °F 70.7 °F 29.86 in Calm   3.0 mph 89 % 0.00 in
14:01 74.2 °F 71.1 °F 29.86 in Calm   1.2 mph 90 % 0.00 in
14:06 74.2 °F 71.1 °F 29.85 in ESE 0.9 mph 3.5 mph 90 % 0.00 in
14:11 74.2 °F 71.1 °F 29.85 in ESE 0.5 mph 2.0 mph 90 % 0.00 in
14:16 74.1 °F 71.0 °F 29.85 in SE 0.3 mph 3.5 mph 90 % 0.01 in
14:21 74.1 °F 71.3 °F 29.85 in Calm     91 % 0.01 in
14:26 74.0 °F 71.2 °F 29.85 in SE 0.3 mph 3.5 mph 91 % 0.01 in
14:31 74.0 °F 71.2 °F 29.85 in SE 0.4 mph 1.2 mph 91 % 0.01 in
14:36 73.9 °F 71.1 °F 29.85 in SE 0.3 mph 2.0 mph 91 % 0.01 in
14:41 73.9 °F 71.1 °F 29.86 in Calm     91 % 0.01 in
14:46 73.9 °F 71.1 °F 29.85 in Calm   1.2 mph 91 % 0.01 in
14:51 73.8 °F 71.0 °F 29.85 in SE 0.3 mph 2.3 mph 91 % 0.01 in
14:56 73.8 °F 71.0 °F 29.85 in Calm     91 % 0.01 in
15:01 73.9 °F 71.4 °F 29.85 in Calm   1.0 mph 92 % 0.01 in
15:06 74.0 °F 71.5 °F 29.85 in Calm     92 % 0.01 in
15:11 74.0 °F 71.5 °F 29.85 in Calm     92 % 0.01 in
15:16 73.9 °F 71.4 °F 29.85 in Calm     92 % 0.00 in
15:21 73.9 °F 71.1 °F 29.85 in Calm     91 % 0.00 in
15:26 73.9 °F 71.1 °F 29.85 in Calm     91 % 0.01 in
15:31 73.9 °F 71.4 °F 29.84 in Calm     92 % 0.01 in
15:36 74.0 °F 71.5 °F 29.84 in Calm     92 % 0.01 in
15:41 74.0 °F 71.5 °F 29.84 in Calm     92 % 0.01 in
15:46 73.9 °F 71.4 °F 29.84 in Calm   1.2 mph 92 % 0.02 in
15:51 73.7 °F 70.9 °F 29.84 in SE 1.9 mph 4.0 mph 91 % 0.02 in
15:56 73.5 °F 71.0 °F 29.85 in Calm     92 % 0.02 in
16:01 73.4 °F 70.9 °F 29.84 in SSE 0.1 mph 2.3 mph 92 % 0.02 in
16:02 73.4 °F 70.9 °F 29.84 in SSE 0.1 mph 2.3 mph 92 % 0.02 in
16:07 73.3 °F 70.8 °F 29.84 in Calm     92 % 0.02 in
16:11 73.3 °F 70.8 °F 29.84 in Calm     92 % 0.02 in
16:16 73.3 °F 70.8 °F 29.84 in Calm     92 % 0.02 in
16:22 73.3 °F 71.2 °F 29.84 in Calm     93 % 0.02 in
16:27 73.3 °F 71.2 °F 29.84 in Calm     93 % 0.01 in
16:32 73.3 °F 71.2 °F 29.83 in Calm     93 % 0.01 in
16:37 73.2 °F 71.1 °F 29.83 in Calm     93 % 0.01 in
16:42 73.2 °F 71.1 °F 29.84 in SSE 0.4 mph 2.3 mph 93 % 0.00 in
16:47 73.2 °F 71.1 °F 29.83 in Calm     93 % 0.00 in
16:49 73.2 °F 71.1 °F 29.83 in Calm     93 % 0.00 in
16:54 73.2 °F 71.1 °F 29.84 in Calm     93 % 0.00 in
16:59 73.1 °F 71.0 °F 29.84 in Calm     93 % 0.00 in
17:04 73.1 °F 71.0 °F 29.84 in Calm     93 % 0.00 in
17:09 73.1 °F 71.0 °F 29.84 in Calm     93 % 0.00 in
17:14 73.0 °F 70.9 °F 29.84 in Calm     93 % 0.00 in
17:19 73.0 °F 70.9 °F 29.84 in SE 1.3 mph 3.5 mph 93 % 0.00 in
17:24 73.0 °F 70.9 °F 29.84 in SE 0.1 mph 1.0 mph 93 % 0.00 in
17:29 73.1 °F 71.0 °F 29.84 in Calm     93 % 0.00 in
17:34 73.2 °F 71.1 °F 29.84 in Calm     93 % 0.00 in
17:39 73.1 °F 71.0 °F 29.84 in Calm     93 % 0.00 in
17:44 73.1 °F 71.0 °F 29.84 in Calm   1.2 mph 93 % 0.00 in
17:49 73.2 °F 70.7 °F 29.84 in SE 1.1 mph 3.0 mph 92 % 0.00 in
17:54 73.2 °F 70.7 °F 29.84 in Calm     92 % 0.00 in
17:59 73.2 °F 70.7 °F 29.85 in SSE 0.2 mph   92 % 0.00 in
18:04 73.2 °F 70.7 °F 29.85 in Calm     92 % 0.00 in
18:09 73.2 °F 70.7 °F 29.85 in SSE 0.9 mph 3.0 mph 92 % 0.00 in
18:15 73.2 °F 70.7 °F 29.85 in SSE 0.3 mph 2.3 mph 92 % 0.00 in
18:20 73.1 °F 70.6 °F 29.85 in Calm   2.3 mph 92 % 0.00 in
18:25 73.0 °F 70.5 °F 29.85 in SSE 1.2 mph 3.5 mph 92 % 0.00 in
18:30 73.0 °F 70.5 °F 29.85 in SE 0.3 mph 2.3 mph 92 % 0.00 in
18:35 72.9 °F 70.4 °F 29.85 in SE 0.3 mph 3.5 mph 92 % 0.00 in
18:40 72.9 °F 70.4 °F 29.85 in SE 1.1 mph 5.0 mph 92 % 0.00 in
18:45 72.8 °F 70.3 °F 29.85 in Calm     92 % 0.00 in
18:50 72.8 °F 70.3 °F 29.86 in Calm     92 % 0.00 in
18:55 72.7 °F 70.2 °F 29.85 in Calm     92 % 0.00 in
19:00 72.6 °F 70.1 °F 29.85 in SE 0.1 mph 2.3 mph 92 % 0.00 in
19:05 72.6 °F 70.1 °F 29.85 in Calm     92 % 0.00 in
19:10 72.6 °F 70.1 °F 29.85 in SE 0.2 mph 3.5 mph 92 % 0.00 in
19:15 72.6 °F 70.1 °F 29.85 in Calm     92 % 0.00 in
19:20 72.5 °F 70.0 °F 29.85 in Calm     92 % 0.00 in
19:25 72.5 °F 70.0 °F 29.85 in SE 0.1 mph 1.2 mph 92 % 0.00 in
19:30 72.4 °F 69.9 °F 29.85 in Calm     92 % 0.00 in
19:35 72.4 °F 69.9 °F 29.85 in SE 0.1 mph 2.3 mph 92 % 0.00 in
19:40 72.4 °F 70.3 °F 29.85 in SE 1.9 mph 4.0 mph 93 % 0.00 in
19:45 72.4 °F 70.3 °F 29.85 in Calm   1.2 mph 93 % 0.00 in
19:50 72.3 °F 70.2 °F 29.85 in SE 0.3 mph 3.5 mph 93 % 0.00 in
19:55 72.2 °F 70.1 °F 29.85 in SE 1.6 mph 3.5 mph 93 % 0.00 in
20:00 72.2 °F 70.1 °F 29.85 in SE 1.6 mph 3.5 mph 93 % 0.00 in
20:05 72.1 °F 70.0 °F 29.85 in SE 0.6 mph 2.3 mph 93 % 0.00 in
20:10 72.1 °F 70.0 °F 29.85 in SE 0.8 mph 4.0 mph 93 % 0.00 in
20:15 72.1 °F 70.0 °F 29.85 in Calm   1.2 mph 93 % 0.00 in
20:17 72.0 °F 69.9 °F 29.86 in SE 0.3 mph 2.3 mph 93 % 0.00 in
20:22 72.0 °F 69.9 °F 29.86 in Calm     93 % 0.00 in
20:27 72.0 °F 69.9 °F 29.85 in Calm   1.2 mph 93 % 0.00 in
20:32 71.9 °F 69.8 °F 29.85 in Calm   1.2 mph 93 % 0.00 in
20:37 71.8 °F 69.7 °F 29.85 in SE 0.1 mph 2.3 mph 93 % 0.00 in
20:42 71.7 °F 69.6 °F 29.85 in SE 1.4 mph 3.5 mph 93 % 0.00 in
20:47 71.7 °F 69.6 °F 29.86 in SE 0.3 mph 2.3 mph 93 % 0.00 in
20:49 71.6 °F 69.5 °F 29.86 in Calm     93 % 0.00 in
20:54 71.6 °F 69.8 °F 29.86 in SE 0.3 mph 1.2 mph 94 % 0.00 in
20:59 71.5 °F 69.7 °F 29.86 in Calm   2.3 mph 94 % 0.00 in
21:04 71.5 °F 69.7 °F 29.86 in Calm   1.2 mph 94 % 0.00 in
21:09 71.4 °F 69.6 °F 29.86 in Calm     94 % 0.00 in
21:14 71.3 °F 69.5 °F 29.86 in Calm     94 % 0.00 in
21:19 71.3 °F 69.5 °F 29.86 in SE 0.2 mph 2.3 mph 94 % 0.00 in
21:24 71.3 °F 69.5 °F 29.85 in Calm     94 % 0.00 in
21:29 71.2 °F 69.4 °F 29.85 in Calm   1.2 mph 94 % 0.00 in
21:34 71.2 °F 69.4 °F 29.86 in Calm     94 % 0.00 in
21:40 71.1 °F 69.3 °F 29.86 in Calm     94 % 0.00 in
21:45 71.1 °F 69.3 °F 29.86 in Calm     94 % 0.00 in
21:50 71.0 °F 69.2 °F 29.86 in Calm     94 % 0.00 in
21:55 71.0 °F 69.2 °F 29.86 in Calm     94 % 0.00 in
22:00 71.0 °F 69.2 °F 29.86 in Calm     94 % 0.00 in
22:05 70.9 °F 69.1 °F 29.86 in Calm     94 % 0.00 in
22:10 70.9 °F 69.1 °F 29.86 in Calm     94 % 0.00 in
22:15 70.8 °F 69.0 °F 29.86 in Calm     94 % 0.00 in
22:20 70.8 °F 69.0 °F 29.86 in Calm   1.2 mph 94 % 0.00 in
22:25 70.8 °F 69.0 °F 29.86 in Calm     94 % 0.00 in
22:30 70.8 °F 69.3 °F 29.86 in Calm     95 % 0.00 in
22:35 70.8 °F 69.3 °F 29.86 in Calm     95 % 0.00 in
22:40 70.8 °F 69.3 °F 29.86 in Calm     95 % 0.00 in
22:45 70.8 °F 69.3 °F 29.86 in Calm     95 % 0.00 in
22:50 70.8 °F 69.3 °F 29.86 in Calm     95 % 0.00 in
22:55 70.8 °F 69.3 °F 29.86 in Calm     95 % 0.00 in
23:00 70.8 °F 69.3 °F 29.86 in Calm     95 % 0.00 in
23:05 70.8 °F 69.3 °F 29.85 in Calm     95 % 0.00 in
23:10 70.7 °F 69.2 °F 29.85 in Calm     95 % 0.00 in
23:17 70.7 °F 68.9 °F 29.85 in Calm     94 % 0.00 in
23:22 70.6 °F 68.8 °F 29.85 in Calm     94 % 0.00 in
23:27 70.5 °F 68.7 °F 29.85 in Calm     94 % 0.00 in
23:30 70.5 °F 68.7 °F 29.85 in Calm     94 % 0.00 in
23:35 70.4 °F 68.6 °F 29.85 in Calm     94 % 0.00 in
23:40 70.3 °F 68.5 °F 29.85 in Calm     94 % 0.00 in
23:45 70.2 °F 68.4 °F 29.85 in Calm     94 % 0.00 in
23:50 70.1 °F 68.3 °F 29.85 in Calm     94 % 0.00 in
23:55 70.0 °F 68.2 °F 29.85 in Calm     94 % 0.00 in
Crab Meadow Weather
Compliments of Weather Underground - 3 mb

Script developed by  Jim McMurry - jmcmurry@mwt.net Adapted for the template by  Wim van der Kuil - Leuven-Template.eu

Cloud Base: The cloud base is the distance from the sea level to the base of the clouds. It is estimated using the current temperature and humidity to indicate an altitude where the air could be cold enough for clouds to form. There may or may not be clouds at that altitude (or at any altitude)